Content
SEND FEEDBACK

Daily
Averages
Monthly
Summary
United States of America

SPENCERVILLE, OKLAHOMA


Home > North America > United States > Oklahoma
Elevation: 500 feet     Latitude: 34 09N     Longitude: 095 23W

WEATHER
 
SELECT A DAY
Number of Records: 63,526;   Date Range: 2/2/12 - 12/23/14
 
SHARE

PRINT THIS DATA

[ ← Previous Day ]
WEATHER ALMANAC - FEBRUARY 13, 2013
[ Next Day → ]
[ °C ]   °F
Weather ElementAverageHighLow
Temperature43.3 °F54.5 °F (3:55 pm)36.9 °F (3:15 am)
Dewpoint35.1 °F36.7 °F (12:35 am)33.6 °F (4:15 pm)
Humidity74.9 %93 % (3:55 am)46 % (4:15 pm)
Barometer30.04 in30.12 in (9:55 am)29.98 in (12:35 am)
Wind Speed7.7 mph15 mph (1:55 am)
Wind Gust18.4 mph (2:35 am)
Weather ElementAverage
Visibility10 mi
Wind DirectionW (269 °)

Weather ElementTotal
Precipitation---
Heating Degree Days19.3 (Base 65)
Averaged from 70 records on February 13, 2013
WEATHER CONDITIONS BREAKOUT
WIND DIRECTION BREAKOUT
WEATHER BY HOUR - FEBRUARY 13, 2013
[ °C ]   °F
Local TimeTemperatureDewpointHumidityBarometerVisibilityWind DirectionWind SpeedGust SpeedPrecipitationEventsConditions
12:35 AM38.8 °F36.7 °F92 %29.98 in10.0 miNW (320°)8.1 mphOvercast
12:55 AM38.3 °F36.0 °F91 %29.98 in10.0 miNW (320°)10.4 mph16.1 mphOvercast
1:15 AM37.9 °F35.6 °F91 %29.98 in10.0 miNNW (330°)8.1 mphOvercast
1:35 AM37.9 °F35.6 °F91 %29.98 in10.0 miNNW (340°)11.5 mphOvercast
1:55 AM37.9 °F35.6 °F91 %29.99 in10.0 miNNW (330°)15.0 mphOvercast
2:15 AM38.1 °F35.6 °F91 %29.99 in10.0 miNNW (330°)10.4 mphOvercast
2:35 AM37.8 °F35.6 °F92 %29.99 in10.0 miNNW (330°)12.7 mph18.4 mphOvercast
2:55 AM37.4 °F35.1 °F91 %30.00 in10.0 miNNW (330°)10.4 mphOvercast
3:15 AM36.9 °F34.7 °F92 %30.00 in10.0 miNW (320°)10.4 mphOvercast
3:35 AM37.4 °F34.9 °F91 %30.01 in10.0 miNNW (330°)8.1 mphOvercast
3:55 AM37.6 °F35.6 °F93 %30.01 in10.0 miNW (320°)11.5 mph16.1 mphOvercast
4:15 AM37.6 °F34.7 °F89 %30.02 in10.0 miNW (320°)9.2 mph17.3 mphOvercast
4:35 AM37.6 °F35.4 °F92 %30.03 in10.0 miNW (320°)12.7 mph18.4 mphOvercast
4:55 AM37.6 °F35.2 °F91 %30.03 in10.0 miNW (320°)9.2 mphOvercast
5:15 AM37.6 °F35.4 °F92 %30.03 in10.0 miNW (320°)10.4 mph17.3 mphOvercast
5:35 AM37.4 °F35.1 °F91 %30.04 in10.0 miNW (310°)9.2 mphOvercast
5:55 AM37.4 °F34.9 °F91 %30.04 in10.0 miNW (310°)8.1 mphOvercast
6:15 AM37.4 °F34.7 °F90 %30.04 in10.0 miNW (320°)6.9 mphOvercast
6:35 AM37.4 °F34.7 °F90 %30.05 in10.0 miNW (310°)8.1 mphOvercast
6:55 AM37.4 °F35.1 °F91 %30.06 in10.0 miWNW (300°)6.9 mphOvercast
7:15 AM37.6 °F34.7 °F89 %30.07 in10.0 miNW (310°)9.2 mphOvercast
7:35 AM37.6 °F34.9 °F90 %30.07 in10.0 miNW (320°)9.2 mphOvercast
7:55 AM37.9 °F35.6 °F91 %30.08 in10.0 miNW (310°)6.9 mphOvercast
8:15 AM38.3 °F35.4 °F89 %30.09 in10.0 miNW (320°)11.5 mphOvercast
8:35 AM38.3 °F35.2 °F89 %30.09 in10.0 miNW (310°)9.2 mphOvercast
8:55 AM38.7 °F35.6 °F89 %30.10 in10.0 miNW (320°)8.1 mphOvercast
9:15 AM39.4 °F36.0 °F88 %30.11 in10.0 miNNW (340°)9.2 mphOvercast
9:35 AM40.5 °F35.8 °F83 %30.11 in10.0 miNNW (340°)10.4 mphOvercast
9:55 AM40.5 °F35.6 °F83 %30.12 in10.0 miNNW (340°)8.1 mphOvercast
10:15 AM41.4 °F35.6 °F80 %30.12 in10.0 miNNW (330°)8.1 mphOvercast
10:35 AM41.4 °F35.2 °F79 %30.12 in10.0 miNNW (330°)3.5 mphOvercast
10:55 AM42.8 °F35.8 °F76 %30.12 in10.0 miWNW (290°)3.5 mphOvercast
11:15 AM43.0 °F35.4 °F75 %30.11 in10.0 miWNW (300°)4.6 mphOvercast
11:35 AM45.0 °F36.0 °F71 %30.11 in10.0 miWNW (290°)6.9 mphOvercast
11:55 AM45.5 °F36.1 °F70 %30.11 in10.0 miWest (270°)8.1 mphOvercast
12:15 PM47.3 °F35.4 °F63 %30.10 in10.0 miWSW (240°)5.8 mphMostly Cloudy
12:35 PM47.5 °F35.6 °F63 %30.09 in10.0 miWest (280°)6.9 mphScattered Clouds
12:55 PM48.4 °F35.8 °F62 %30.08 in10.0 miWSW (250°)5.8 mphScattered Clouds
1:15 PM49.8 °F36.1 °F59 %30.06 in10.0 miWest (280°)8.1 mphScattered Clouds
1:35 PM50.4 °F35.6 °F57 %30.05 in10.0 miWest (280°)6.9 mphClear
1:55 PM51.1 °F35.1 °F54 %30.04 in10.0 miWNW (300°)5.8 mphClear
2:15 PM51.8 °F36.1 °F55 %30.03 in10.0 miWest (280°)8.1 mphClear
2:35 PM52.2 °F35.4 °F53 %30.03 in10.0 miWest (260°)11.5 mphScattered Clouds
2:55 PM53.2 °F35.8 °F52 %30.02 in10.0 miWSW (250°)8.1 mphClear
3:15 PM53.2 °F34.3 °F49 %30.01 in10.0 miWSW (240°)6.9 mphClear
3:55 PM54.5 °F34.3 °F47 %30.01 in10.0 miWSW (240°)4.6 mphClear
4:15 PM54.3 °F33.6 °F46 %30.01 in10.0 miSW (220°)3.5 mphClear
4:35 PM54.0 °F34.2 °F47 %30.01 in10.0 miSW (230°)6.9 mphClear
4:55 PM53.4 °F34.0 °F48 %30.00 in10.0 miNorthClear
5:15 PM52.7 °F34.0 °F49 %30.00 in10.0 miSW (230°)5.8 mphClear
5:35 PM52.0 °F33.8 °F50 %30.00 in10.0 miNorthClear
5:55 PM50.4 °F34.2 °F54 %29.99 in10.0 miWSW (240°)5.8 mphClear
6:15 PM48.6 °F33.8 °F57 %30.00 in10.0 miSW (230°)5.8 mphClear
6:35 PM47.5 °F33.8 °F59 %30.00 in10.0 miSW (220°)5.8 mphClear
6:55 PM46.4 °F34.0 °F62 %30.00 in10.0 miSW (220°)5.8 mphClear
7:15 PM46.4 °F33.8 °F62 %30.01 in10.0 miSW (230°)5.8 mphClear
7:35 PM46.0 °F33.8 °F62 %30.01 in10.0 miSSW (210°)4.6 mphClear
7:55 PM45.1 °F34.2 °F65 %30.01 in10.0 miSSW (210°)4.6 mphClear
8:15 PM44.2 °F34.0 °F67 %30.01 in10.0 miSSW (210°)5.8 mphClear
8:35 PM43.9 °F34.7 °F70 %30.02 in10.0 miSSW (200°)5.8 mphClear
8:55 PM43.5 °F35.1 °F72 %30.02 in10.0 miSSW (210°)5.8 mphClear
9:15 PM42.8 °F35.6 °F76 %30.02 in10.0 miSSW (210°)6.9 mphClear
9:35 PM43.3 °F35.8 °F75 %30.02 in10.0 miSW (220°)6.9 mphClear
9:55 PM43.0 °F35.6 °F75 %30.02 in10.0 miSW (220°)6.9 mphClear
10:15 PM42.3 °F34.9 °F75 %30.02 in10.0 miSSW (200°)5.8 mphClear
10:35 PM41.9 °F35.1 °F77 %30.03 in10.0 miSSW (210°)5.8 mphClear
10:55 PM41.9 °F35.1 °F77 %30.03 in10.0 miSSW (210°)6.9 mphClear
11:15 PM41.7 °F35.1 °F77 %30.03 in10.0 miSSW (210°)6.9 mphClear
11:35 PM41.2 °F35.1 °F79 %30.03 in10.0 miSW (220°)5.8 mphClear
11:55 PM40.5 °F35.1 °F81 %30.04 in10.0 miSW (220°)6.9 mphClear
Hourly data recorded from KHHW, located miles away from Spencerville, Oklahoma







STORIES FROM OUR PARTNERS